Hundvaag 1 weather for May 2000
Month no. 155
Obs.
Da.
Temp. Dew Point Precip. Wind
Speed
Wind gusts Cloud cover Press. Humidity Wind dir. Sunny OPT
01.05.2000 10,0   7,8     4 1018,7     1  
02.05.2000 9,0   0,4     0 1020,8        
03.05.2000 6,5   0,6     9 1021,3     1  
04.05.2000 5,5   0,0     10 1021,3     1  
05.05.2000 8,4   0,0     5 1020,8     1  
06.05.2000 7,6   0,0     10 1019,7     1  
07.05.2000 8,7   0,0     0 1020,0     1  
08.05.2000 9,9   0,0     10 1021,1     1  
09.05.2000 10,5   0,0     10 1020,0     1  
10.05.2000 8,8   0,0     10 1019,9     1  
11.05.2000 8,5   0,0     9 1021,3     1  
12.05.2000 8,8   0,0     10 1023,1     1  
13.05.2000 9,5   0,0     10 1022,7     1  
14.05.2000 8,7   0,0     10 1021,5     1  
15.05.2000 9,0   0,0     10 1020,1     1  
16.05.2000 13,5   0,0     1 1015,9     1  
17.05.2000 15,2   15,4     2 1006,5     1  
18.05.2000 8,6   5,5     7 1006,3     1  
19.05.2000 8,9   9,0     0 1006,4        
20.05.2000 8,1   12,5     7 1011,6     1  
21.05.2000 11,1   0,0     9 1011,5     1  
22.05.2000 8,5   0,0     3 1011,9     1  
23.05.2000 9,0   2,0     10 1013,6     1  
24.05.2000 10,3   10,5     0 1008,9     1  
25.05.2000 8,4   0,2     9 1011,5     1  
26.05.2000 9,8   0,0     3 1010,8     1  
27.05.2000 10,9   3,8     0 1007,5     1  
28.05.2000 8,5   11,0     0 1007,7     1  
29.05.2000 8,5   3,7     0 1004,9        
30.05.2000 8,0   0,5     3 1010,9     1  
31.05.2000 7,5   4,0     0 1013,5     1  
Avrg/Sum 9,2   86,9     5,5 1015,2     28